Satellite: MET-3/5
Catalog number: 21655
Epoch time:      09175.97408281
Element set:    0724
Inclination:      082.5516 deg
RA of node:       200.9922 deg
Eccentricity:    0.0013420
Arg of perigee:   155.9174 deg
Mean anomaly:     204.2578 deg
Mean motion:   13.17019186 rev/day
Decay rate:        5.1e-07 rev/day^2
Epoch rev:           85865
Checksum:              308

Satellite: MET-2/21
Catalog number: 22782
Epoch time:      09175.55519873
Element set:    0494
Inclination:      082.5466 deg
RA of node:       176.1630 deg
Eccentricity:    0.0021530
Arg of perigee:   329.9082 deg
Mean anomaly:     030.0833 deg
Mean motion:   13.83635925 rev/day
Decay rate:        3.1e-07 rev/day^2
Epoch rev:           79862
Checksum:              316

Satellite: OKEAN-4
Catalog number: 23317
Epoch time:      09175.72556791
Element set:    0944
Inclination:      082.5393 deg
RA of node:       327.4493 deg
Eccentricity:    0.0021923
Arg of perigee:   344.4490 deg
Mean anomaly:     015.6042 deg
Mean motion:   14.82704198 rev/day
Decay rate:        7.2e-07 rev/day^2
Epoch rev:           79348
Checksum:              321

Satellite: NOAA-14
Catalog number: 23455
Epoch time:      09175.74336266
Element set:    0667
Inclination:      098.9099 deg
RA of node:       253.3970 deg
Eccentricity:    0.0009753
Arg of perigee:   164.3299 deg
Mean anomaly:     195.8158 deg
Mean motion:   14.13764053 rev/day
Decay rate:      -1.02e-06 rev/day^2
Epoch rev:           74699
Checksum:              353

Satellite: NOAA-15
Catalog number: 25338
Epoch time:      09175.56723357
Element set:    0980
Inclination:      098.5834 deg
RA of node:       164.6118 deg
Eccentricity:    0.0011417
Arg of perigee:   041.4774 deg
Mean anomaly:     318.7265 deg
Mean motion:   14.24769101 rev/day
Decay rate:       2.31e-06 rev/day^2
Epoch rev:           57782
Checksum:              321

Satellite: RESURS
Catalog number: 25394
Epoch time:      09176.66111299
Element set:     245
Inclination:      098.3403 deg
RA of node:       208.5784 deg
Eccentricity:    0.0001243
Arg of perigee:   145.6858 deg
Mean anomaly:     214.4401 deg
Mean motion:   14.24184484 rev/day
Decay rate:       -5.0e-08 rev/day^2
Epoch rev:           56960
Checksum:              299

Satellite: FENGYUN1
Catalog number: 25730
Epoch time:      09175.95755151
Element set:    0790
Inclination:      098.7559 deg
RA of node:       145.8910 deg
Eccentricity:    0.0019535
Arg of perigee:   193.1400 deg
Mean anomaly:     166.9258 deg
Mean motion:   14.07910508 rev/day
Decay rate:      -2.96e-06 rev/day^2
Epoch rev:           52141
Checksum:              318

Satellite: OKEAN-0
Catalog number: 25860
Epoch time:      09176.52362912
Element set:     713
Inclination:      097.7858 deg
RA of node:       157.3718 deg
Eccentricity:    0.0001574
Arg of perigee:   101.9779 deg
Mean anomaly:     258.1597 deg
Mean motion:   14.73577805 rev/day
Decay rate:       -1.0e-08 rev/day^2
Epoch rev:           53437
Checksum:              332

Satellite: NOAA-16
Catalog number: 26536
Epoch time:      09175.51746078
Element set:    0457
Inclination:      099.1751 deg
RA of node:       179.3604 deg
Eccentricity:    0.0009521
Arg of perigee:   260.3387 deg
Mean anomaly:     099.6709 deg
Mean motion:   14.12521443 rev/day
Decay rate:      -2.40e-06 rev/day^2
Epoch rev:           45133
Checksum:              313

Satellite: NOAA-17
Catalog number: 27453
Epoch time:      09175.72931123
Element set:    0463
Inclination:      098.4841 deg
RA of node:       234.5396 deg
Eccentricity:    0.0012832
Arg of perigee:   101.2955 deg
Mean anomaly:     258.9659 deg
Mean motion:   14.24071269 rev/day
Decay rate:      -1.04e-06 rev/day^2
Epoch rev:           36382
Checksum:              315

Satellite: NOAA-18
Catalog number: 28654
Epoch time:      09175.77495941
Element set:    0952
Inclination:      098.9075 deg
RA of node:       118.9557 deg
Eccentricity:    0.0014109
Arg of perigee:   346.1912 deg
Mean anomaly:     013.8898 deg
Mean motion:   14.11264390 rev/day
Decay rate:       -6.4e-07 rev/day^2
Epoch rev:           21102
Checksum:              329

Satellite: NOAA-19
Catalog number: 33591
Epoch time:      09175.75659977
Element set:    0155
Inclination:      098.7461 deg
RA of node:       121.3211 deg
Eccentricity:    0.0013431
Arg of perigee:   218.6593 deg
Mean anomaly:     141.3620 deg
Mean motion:   14.10967917 rev/day
Decay rate:       3.69e-06 rev/day^2
Epoch rev:           01950
Checksum:              316

/EX
SB KEPS @ AMSAT  $ORB09176.M
Orbital Elements  09176.MISC

HR AMSAT ORBITAL ELEMENTS FOR MANNED AND MISCELLANEOUS SATELLITES
FROM WA5QGD FORT WORTH,TX June 25, 2009
Send Subscribe/unsubscribe to KEPS at 
http://www.amsat.org/mailman/listinfo/keps
BID: ORB09176.M
TO ALL RADIO AMATEURS BT

Satellite: HUBBLE
Catalog number: 20580
Epoch time:      09174.09806668
Element set:    0411
Inclination:      028.4694 deg
RA of node:       063.7168 deg
Eccentricity:    0.0003244
Arg of perigee:   344.9911 deg
Mean anomaly:     015.0591 deg
Mean motion:   15.00810340 rev/day
Decay rate:       2.42e-06 rev/day^2
Epoch rev:           85074
Checksum:              277

Satellite: ISS
Catalog number: 25544
Epoch time:      09176.70194252
Element set:     104
Inclination:      051.6411 deg
RA of node:       263.1881 deg
Eccentricity:    0.0008223
Arg of perigee:   149.5961 deg
Mean anomaly:     346.7696 deg
Mean motion:   15.73976504 rev/day
Decay rate:     1.0931e-04 rev/day^2
Epoch rev:           60729
Checksum:              308

Satellite: CO-58
Catalog number: 28895
Epoch time:      09175.67237911
Element set:    0334
Inclination:      098.0614 deg
RA of node:       066.0811 deg
Eccentricity:    0.0017335
Arg of perigee:   327.9567 deg
Mean anomaly:     032.0595 deg
Mean motion:   14.59777232 rev/day
Decay rate:       2.08e-06 rev/day^2
Epoch rev:           19482
Checksum:              336

Satellite: FALCON
Catalog number: 30776
Epoch time:      09176.79940574
Element set:     598
Inclination:      035.4341 deg
RA of node:       047.1578 deg
Eccentricity:    0.0001895
Arg of perigee:   326.8877 deg
Mean anomaly:     033.1725 deg
Mean motion:   15.03259636 rev/day
Decay rate:       1.35e-06 rev/day^2
Epoch rev:           12639
Checksum:              329

Satellite: MAST
Catalog number: 31126
Epoch time:      09175.60683167
Element set:    0626
Inclination:      097.9878 deg
RA of node:       230.0731 deg
Eccentricity:    0.0093481
Arg of perigee:   256.9784 deg
Mean anomaly:     102.0982 deg
Mean motion:   14.53502988 rev/day
Decay rate:        9.1e-07 rev/day^2
Epoch rev:           11611
Checksum:              313

Satellite: CAPE1
Catalog number: 31130
Epoch time:      09176.82442862
Element set:     632
Inclination:      097.9885 deg
RA of node:       229.3960 deg
Eccentricity:    0.0101343
Arg of perigee:   258.2616 deg
Mean anomaly:     100.7188 deg
Mean motion:   14.52066525 rev/day
Decay rate:       1.09e-06 rev/day^2
Epoch rev:           11594
Checksum:              298

Satellite: COMPASS
Catalog number: 32787
Epoch time:      09176.81388957
Element set:     392
Inclination:      097.9420 deg
RA of node:       240.5656 deg
Eccentricity:    0.0016079
Arg of perigee:   008.8095 deg
Mean anomaly:     351.3396 deg
Mean motion:   14.81617948 rev/day
Decay rate:       3.37e-06 rev/day^2
Epoch rev:            6272
Checksum:              343

Satellite: AAUSAT2
Catalog number: 32788
Epoch time:      09175.63305491
Element set:    0397
Inclination:      097.9405 deg
RA of node:       239.4526 deg
Eccentricity:    0.0015832
Arg of perigee:   013.9132 deg
Mean anomaly:     346.2550 deg
Mean motion:   14.81740836 rev/day
Decay rate:       3.24e-06 rev/day^2
Epoch rev:           06255
Checksum:              308

Satellite: DO-64
Catalog number: 32789
Epoch time:      09176.73525739
Element set:     403
Inclination:      097.9472 deg
RA of node:       240.7144 deg
Eccentricity:    0.0016099
Arg of perigee:   008.4001 deg
Mean anomaly:     351.7477 deg
Mean motion:   14.81728343 rev/day
Decay rate:       2.23e-06 rev/day^2
Epoch rev:            6271
Checksum:              316

Satellite: CO-66
Catalog number: 32791
Epoch time:      09176.85771567
Element set:     385
Inclination:      097.9446 deg
RA of node:       240.6417 deg
Eccentricity:    0.0016252
Arg of perigee:   007.2815 deg
Mean anomaly:     352.8608 deg
Mean motion:   14.81445218 rev/day
Decay rate:       -2.2e-07 rev/day^2
Epoch rev:            6269
Checksum:              330

Satellite: RS-30
Catalog number: 32953
Epoch time:      09175.75582124
Element set:    0339
Inclination:      082.5011 deg
RA of node:       251.9048 deg
Eccentricity:    0.0019640
Arg of perigee:   158.5884 deg
Mean anomaly:     201.6028 deg
Mean motion:   12.43001863 rev/day
Decay rate:        1.0e-07 rev/day^2
Epoch rev:           04933
Checksum:              279

Satellite: TACSAT-3
Catalog number: 35001
Epoch time:      09175.93379220
Element set:    0039
Inclination:      040.4546 deg
RA of node:       194.3312 deg
Eccentricity:    0.0025115
Arg of perigee:   222.1467 deg
Mean anomaly:     137.7416 deg
Mean motion:   15.38854406 rev/day
Decay rate:       8.78e-06 rev/day^2
Epoch rev:           00554
Checksum:              285

Satellite: PHARMSAT
Catalog number: 35002
Epoch time:      09175.46165344
Element set:    0039
Inclination:      040.4677 deg
RA of node:       196.9365 deg
Eccentricity:    0.0027767
Arg of perigee:   222.7881 deg
Mean anomaly:     137.0772 deg
Mean motion:   15.39623457 rev/day
Decay rate:       7.88e-06 rev/day^2
Epoch rev:           00546
Checksum:              322

